Tracking 19795 objects as of 20-Jul-2019
HD Live streaming from Space Station
objects crossing your sky now

TITAN 34D TRANSTAGE DEB

Track TITAN 34D TRANSTAGE DEB now!


NORAD ID: 22668
Int'l Code: 1988-077D
Perigee: 426.2 km
Apogee: 37,920.3 km
Inclination: 26.9 °
Period: 677.2 minutes
Semi major axis: 25544 km
RCS: Unknown
Launch date: September 2, 1988
Source: United States (US)
Launch site: AIR FORCE EASTERN TEST RANGE (AFETR)

Note: This is SATELLITE DEBRIS
aabbcc
Your satellite tracking list
Your tracking list is empty




NASA's NSSDC Master Catalog

Two Line Element Set (TLE):
1 22668U 88077D   19200.24068467 -.00000059 +00000-0 +17687-3 0  9990
2 22668 026.9353 301.3976 7339037 081.4824 348.1618 02.12648633001087
Source of the keplerian elements: AFSPC